EW9828 Weather Reports


time (UTC)temp
C
wind
direction
speed
KPH
gust
KPH
rain 1hr
cm
rain 24hr
cm
rain mn
cm
humidity
%
barometer
mb
20260505034513 15 11 0.0 0.0 0.00 0.00 0.00 68 1012.9
20260505033014 15 11 0.0 0.0 0.00 0.00 0.00 70 1012.9
20260505031511 15 11 0.0 0.0 0.00 0.00 0.00 71 1012.9
20260505030011 15 11 0.0 0.0 0.00 0.00 0.00 73 1012.9
20260505024512 15 11 0.0 0.0 0.00 0.00 0.00 73 1013.0
20260505023018 16 11 0.0 0.0 0.00 0.00 0.00 72 1012.9
20260505021513 16 11 0.0 0.0 0.00 0.00 0.00 69 1012.9
20260505020008 16 11 0.0 0.0 0.00 0.00 0.00 67 1013.0
20260505014513 17 11 0.0 0.0 0.00 0.00 0.00 63 1012.8
20260505013007 17 11 0.0 0.0 0.00 0.00 0.00 61 1012.6
20260505011506 18 11 0.0 0.0 0.00 0.00 0.00 58 1012.3
20260505010006 18 11 0.0 0.0 0.00 0.00 0.00 56 1012.3
20260505004505 19 11 0.0 0.0 0.00 0.00 0.00 54 1012.2
20260505003005 20 11 0.0 0.0 0.00 0.00 0.00 53 1012.2
20260505001504 21 11 0.0 0.0 0.00 0.00 0.00 52 1012.1
20260505000007 21 11 0.0 0.0 0.00 0.00 0.00 50 1012.0
20260504234504 22 11 0.0 0.0 0.00 0.00 0.00 49 1011.9
20260504233005 22 11 0.0 0.0 0.00 0.00 0.00 48 1011.8
20260504231502 23 11 0.0 0.0 0.00 0.00 0.00 47 1011.7
20260504230106 24 11 0.0 0.0 0.00 0.00 0.00 42 1011.7
20260504230001 24 11 0.0 0.0 0.00 0.00 0.00 42 1011.7
20260504224600 24 11 0.0 0.0 0.00 0.00 0.00 42 1011.9
20260504223103 23 11 0.0 0.0 0.00 0.00 0.00 43 1011.9
20260504221604 24 11 0.0 0.0 0.00 0.00 0.00 40 1012.0
20260504220058 25 11 0.0 0.0 0.00 0.00 0.00 39 1012.0
20260504214614 25 11 0.0 0.0 0.00 0.00 0.00 38 1012.1
20260504213116 26 11 0.0 0.0 0.00 0.00 0.00 38 1012.0
20260504211557 25 12 0.0 0.0 0.00 0.00 0.00 38 1011.9
20260504210059 25 12 0.0 0.0 0.00 0.00 0.00 42 1011.8
20260504204555 25 12 0.0 0.0 0.00 0.00 0.00 39 1011.9
20260504203103 25 12 0.0 0.0 0.00 0.00 0.00 39 1012.1
20260504201606 25 11 0.0 0.0 0.00 0.00 0.00 35 1012.2
20260504200050 25 11 0.0 0.0 0.00 0.00 0.00 37 1012.3
20260504194551 26 11 0.0 0.0 0.00 0.00 0.00 35 1012.6
20260504193045 26 11 0.0 0.0 0.00 0.00 0.00 34 1012.9
20260504191554 26 11 0.0 0.0 0.00 0.00 0.00 33 1013.1
20260504190043 26 11 0.0 0.0 0.00 0.00 0.00 36 1013.4
20260504184549 25 12 0.0 0.0 0.00 0.00 0.00 35 1013.4
20260504183036 25 12 0.0 0.0 0.00 0.00 0.00 34 1013.5
20260504181537 25 12 0.0 0.0 0.00 0.00 0.00 32 1013.6
20260504180031 25 12 0.0 0.0 0.00 0.00 0.00 32 1013.8
20260504174530 25 12 0.0 0.0 0.00 0.00 0.00 34 1013.6
20260504173026 24 12 0.0 0.0 0.00 0.00 0.00 35 1014.0
20260504171522 24 12 0.0 0.0 0.00 0.00 0.00 36 1014.4
20260504081545 5 12 0.0 0.0 0.00 0.00 0.00 83 1016.3
20260504044533 6 12 0.0 0.0 0.00 0.00 0.00 80 1016.3
20260504043032 6 12 0.0 0.0 0.00 0.00 0.00 81 1016.4
20260504041530 6 12 0.0 0.0 0.00 0.00 0.00 80 1016.3
20260504040028 7 12 0.0 0.0 0.00 0.00 0.00 79 1016.3